Location: Cardiff
(53.7833°N, 113.6000°W)
Time: 20:22:15
(UTC+00:00)

ISS - Visible Passes

Search period start: 19 January 2026 00:00
Search period end: 29 January 2026 00:00
Orbit: 413 x 424 km, 51.6° (Epoch: 19 January)

Date Brightness Start Highest point End Pass type
(mag) Time Alt. Az. Time Alt. Az. Time Alt. Az.
19 Jan -2.2 00:35:45 10° SSW 00:38:36 26° SSE 00:41:28 10° E visible
19 Jan -3.4 02:11:44 10° WSW 02:14:51 55° S 02:14:51 55° S visible
20 Jan -3.2 01:24:00 10° WSW 01:27:15 50° SSE 01:28:58 24° ESE visible
20 Jan -1.3 03:00:33 10° W 03:01:55 22° W 03:01:55 22° W visible
21 Jan -2.9 00:36:18 10° SW 00:39:29 42° SSE 00:42:40 10° E visible
21 Jan -3.5 02:12:44 10° W 02:16:01 60° S 02:16:01 60° S visible
22 Jan -3.4 01:24:54 10° WSW 01:28:12 60° S 01:30:07 22° ESE visible
22 Jan -1.3 03:01:35 10° W 03:03:04 22° WSW 03:03:04 22° WSW visible
23 Jan -3.3 00:37:04 10° WSW 00:40:21 56° S 00:43:38 10° E visible
23 Jan -3.3 02:13:41 10° W 02:16:56 50° SSW 02:17:10 49° S visible
24 Jan -3.3 01:25:46 10° W 01:29:04 56° S 01:31:18 19° ESE visible
24 Jan -1.3 03:02:37 10° W 03:04:15 21° WSW 03:04:15 21° WSW visible
25 Jan -3.3 00:37:51 10° W 00:41:10 60° S 00:44:28 10° ESE visible
25 Jan -2.5 02:14:35 10° W 02:17:40 34° SSW 02:18:26 30° S visible
26 Jan -2.7 01:26:35 10° W 01:29:46 42° SSW 01:32:41 12° SE visible
26 Jan -1.0 03:03:58 10° WSW 03:05:38 15° SW 03:05:38 15° SW visible
27 Jan -2.9 00:38:35 10° W 00:41:51 50° SSW 00:45:06 10° ESE visible
27 Jan -1.4 02:15:37 10° W 02:18:10 20° SSW 02:19:59 14° S visible
28 Jan -1.8 01:27:25 10° W 01:30:18 27° SSW 01:33:11 10° SSE visible
